Overview Statistics Trail Chart Weather Telemetry Raw packets
 

This is the latest recevied weather packets stored in our database for station/object ac2ev. If no packets are shown the sender has not sent any weather packets the latest 10 day(s).

<< 29 30 31 32 33 34 35 >>
Time Temp. Humidity Pressure Rain* Wind** Luminosity Snow
1788462809 25.56° C 79% 1011.9 hPa 0 mm - - -
1788462509 26.11° C 78% 1011.9 hPa 0 mm - - -
1788462209 26.11° C 78% 1011.9 hPa 0 mm - - -
1788461910 26.67° C 78% 1011.8 hPa 0 mm - - -
1788461609 26.67° C 79% 1011.8 hPa 0 mm - - -
1788461309 26.11° C 80% 1011.8 hPa 0 mm - - -
1788461010 26.11° C 79% 1011.9 hPa 0 mm - - -
1788460709 26.11° C 77% 1012 hPa 0 mm - - -
1788460411 26.67° C 76% 1012 hPa 0 mm - - -
1788460109 26.67° C 76% 1012.1 hPa 0 mm - - -
1788459810 27.22° C 73% 1012.4 hPa 0 mm - - -
1788459509 27.22° C 71% 1012.1 hPa 0 mm - - -
1788459211 27.78° C 69% 1012.1 hPa 0 mm - - -
1788458909 28.33° C 66% 1012 hPa 0 mm - - -
1788458611 28.33° C 65% 1011.9 hPa 0 mm - - -
1788458310 28.33° C 68% 1012 hPa 0 mm - - -
1788458010 27.78° C 68% 1012 hPa 0 mm - - -
1788457710 27.78° C 66% 1012 hPa 0 mm - - -
1788457410 28.33° C 66% 1012.1 hPa 0 mm - - -
1788457109 28.33° C 67% 1012.1 hPa 0 mm - - -
1788456811 28.33° C 66% 1012.1 hPa 0 mm - - -
1788456509 27.78° C 66% 1012.3 hPa 0 mm - - -
1788456214 28.33° C 66% 1012.3 hPa 0 mm - - -
1788455909 28.33° C 64% 1012.1 hPa 0 mm - - -
1788455611 28.33° C 64% 1012.1 hPa 0 mm - - -

* Rain latest hour (hover to see other rain measurements)
** Current wind speed in m/s (hover to see current wind gust speed)